Theta_e
315 316 319 320 316 313 317 316 317 346 348 348 342 338 343 345 344 342 346 343 340 339 339 338 338 337 337 336 336 335 335 335 335 336 338 336 335 339 335 334 334 336 339 340 340 338 335 333 331
316 318 320 312 314 314 312 316 319 343 348 342 340 344 344 348 343 347 346 342 341 340 340 340 340 340 338 337 337 338 338 341 341 340 340 340 339 339 336 335 334 334 336 338 338 338 337 336 334
317 320 317 315 313 315 328 335 345 347 343 340 338 333 339 344 338 342 343 342 341 343 342 340 343 342 341 341 340 340 340 338 339 340 340 339 339 339 338 337 336 336 336 337 337 336 336 335 335
318 315 312 318 321 319 321 340 347 342 337 337 337 339 331 328 334 342 341 340 339 338 338 339 340 341 339 340 340 339 338 338 338 338 338 338 338 338 337 337 337 337 337 337 337 337 336 335 335
317 311 315 318 319 319 317 329 344 338 339 340 337 338 337 330 337 341 339 339 338 336 336 337 338 339 339 338 337 337 336 335 336 336 336 335 332 332 332 332 332 332 333 333 333 334 334 335 336
314 312 317 318 318 318 318 325 344 338 340 339 339 340 338 331 340 337 337 337 337 336 336 338 337 337 335 335 334 331 331 332 335 334 331 329 327 325 324 324 329 328 324 325 326 329 326 330 332
315 315 318 318 319 319 320 328 335 337 340 341 337 338 333 336 336 337 335 335 333 332 333 333 332 331 329 327 328 328 328 330 333 330 325 322 319 318 317 318 318 317 315 314 315 317 318 320 322
313 314 319 318 319 319 319 325 324 329 333 333 331 338 337 334 334 336 335 335 332 330 325 325 326 325 324 321 317 323 325 325 324 322 320 319 317 316 314 314 313 312 311 311 311 310 312 313 314
313 315 317 320 319 320 318 325 328 328 333 329 328 333 332 330 330 329 327 327 328 326 325 322 321 322 321 317 309 314 318 320 319 313 309 310 311 311 311 310 309 307 306 306 305 306 306 306 307
315 314 317 317 318 319 321 326 328 332 333 331 330 330 329 326 325 324 323 321 322 319 318 322 319 319 318 314 309 305 305 306 305 304 304 305 306 307 306 306 304 304 304 304 304 304 304 303 303
316 317 317 318 317 316 319 323 324 329 332 332 332 329 326 325 323 322 320 323 323 319 315 317 317 315 314 312 309 307 305 304 303 302 302 303 304 304 304 303 303 303 303 303 303 302 301 301 301
318 317 318 317 317 316 319 319 324 322 323 329 329 327 326 324 321 319 316 317 317 315 313 313 314 313 312 311 309 307 305 304 303 302 302 303 303 303 302 302 301 301 301 301 300 299 299 299 299
316 318 318 317 316 315 317 321 323 324 329 328 328 327 326 322 318 315 315 314 314 313 312 312 312 311 310 309 308 306 305 304 302 301 301 302 302 302 301 300 300 299 299 298 298 297 297 297 297
317 317 317 317 317 317 321 324 323 327 329 330 328 327 324 320 315 311 310 311 311 312 312 312 311 311 310 308 307 306 304 303 301 300 300 300 300 300 299 299 298 298 297 297 296 295 295 295 295
317 318 317 318 319 318 320 325 322 326 329 330 330 328 323 316 312 311 310 310 311 310 311 311 310 308 308 307 307 305 304 302 301 299 299 299 299 298 298 297 297 297 296 296 295 294 294 294 294
318 318 320 320 318 318 316 317 319 325 330 331 330 319 318 314 312 310 309 310 310 309 309 309 309 308 307 307 306 305 303 301 300 299 298 298 298 298 297 297 297 296 295 295 294 293 293 293 293
318 321 320 320 318 318 317 317 315 324 329 330 325 319 317 313 310 309 308 309 309 309 309 309 308 307 307 306 305 304 302 301 300 299 299 298 298 298 297 297 296 295 294 293 292 292 292 292 292
321 320 320 320 319 318 318 316 316 323 325 325 322 317 314 312 310 307 307 308 308 308 307 308 308 307 306 305 304 302 302 301 300 299 299 298 298 298 297 296 295 294 293 292 291 291 291 291 291
318 319 319 319 319 319 318 317 316 322 322 323 318 314 312 311 308 306 306 307 307 307 307 307 307 307 305 304 303 302 301 300 300 299 299 299 298 297 296 295 294 293 292 291 290 290 290 291 291
317 318 319 318 318 317 317 316 315 318 322 322 320 315 313 310 305 305 304 304 305 306 306 306 306 306 305 304 303 302 300 299 299 299 299 298 297 296 295 295 293 292 291 291 290 290 290 290 290
319 319 319 319 318 316 316 316 315 316 318 321 319 317 314 309 306 305 304 304 304 305 305 305 305 305 305 303 302 301 300 299 299 298 298 297 296 295 295 294 292 291 291 290 289 289 289 289 290
324 320 318 318 319 322 315 322 317 316 317 318 318 316 314 309 307 305 304 304 303 304 304 304 304 303 303 302 302 300 299 298 298 298 296 296 295 295 294 292 291 291 290 289 289 289 290 289 288
323 321 320 320 319 317 318 315 315 314 316 317 316 316 313 309 306 305 304 304 303 303 303 303 303 302 302 301 301 300 299 298 297 297 296 295 294 294 292 291 291 291 290 289 289 289 289 287 287
320 319 320 317 316 322 319 316 319 317 315 316 316 315 314 310 307 305 305 303 302 302 302 301 301 301 301 301 301 300 298 297 296 296 295 294 293 292 291 291 290 290 289 288 288 288 287 286 285
320 321 324 324 318 322 318 319 320 314 314 315 315 316 314 311 308 305 304 302 300 300 300 300 301 300 300 300 299 298 298 297 296 295 295 293 292 291 290 290 289 288 288 287 287 286 285 284 283
320 322 324 328 325 322 316 319 317 314 313 312 311 313 315 311 308 305 304 303 300 300 300 299 299 299 299 299 297 297 297 296 295 295 294 293 292 291 290 289 288 287 286 286 286 285 284 283 282
319 321 320 323 321 322 321 319 317 314 312 312 310 312 312 312 309 306 303 303 301 300 300 299 299 299 298 297 296 296 296 295 295 294 294 293 292 290 290 289 287 285 285 285 286 285 284 282 281
318 317 320 320 325 326 320 317 318 315 314 312 311 313 311 311 308 305 303 302 301 300 300 299 299 298 297 296 296 295 295 294 294 293 293 292 291 290 289 288 287 285 284 285 285 284 283 281 280
317 316 317 318 322 328 325 320 314 314 313 312 312 311 309 308 306 304 303 302 301 300 300 299 298 297 297 296 295 295 294 294 293 293 292 291 290 290 289 288 287 285 285 285 284 283 281 280 279
316 319 317 318 320 317 317 321 310 310 310 310 312 312 309 306 305 304 303 301 300 300 299 298 298 297 297 296 295 294 293 293 293 292 291 290 290 289 288 287 286 285 284 284 284 282 280 279 278
Wind_Speed
11 9 0 3 4 5 3 6 2 4 3 2 6 3 7 3 1 3 13 15 20 19 16 14 13 12 12 12 12 11 11 10 10 9 9 9 9 9 9 8 8 8 8 8 8 8 9 9 9
11 2 3 2 4 2 4 5 6 4 8 14 10 4 4 3 3 8 8 17 17 18 15 14 12 12 12 11 11 10 10 9 9 8 8 8 8 7 7 8 8 7 7 7 7 8 8 9 10
4 2 3 4 3 4 3 3 3 10 11 4 6 5 2 8 2 2 16 19 19 17 16 15 14 13 12 12 11 10 9 8 8 8 8 7 7 7 6 7 7 7 8 8 8 8 8 10 11
1 5 4 4 4 6 3 4 12 11 4 7 7 8 1 2 1 7 19 19 19 16 15 13 14 14 13 13 12 10 9 8 8 8 9 9 10 9 9 9 9 9 9 9 8 8 9 9 10
4 3 3 1 4 5 4 7 13 6 6 6 4 7 3 3 9 20 18 17 16 17 15 13 12 13 12 12 12 11 9 9 12 13 13 14 13 13 13 13 14 12 10 9 10 9 9 10 9
3 3 3 2 5 6 3 10 10 2 6 7 6 10 4 6 20 18 18 18 17 18 15 13 12 13 13 13 13 13 11 12 13 12 13 13 12 12 12 11 11 12 12 12 12 11 11 12 12
5 3 4 3 4 5 1 9 8 5 9 7 16 5 5 8 19 24 22 20 18 18 17 16 16 17 16 16 14 13 13 14 14 13 13 13 13 13 14 14 13 12 12 13 12 13 13 13 13
5 3 2 4 3 7 3 4 9 6 1 10 8 8 8 16 28 28 25 21 20 17 18 19 19 18 17 15 13 13 14 14 13 12 12 11 10 11 12 11 11 10 10 10 11 12 12 12 13
3 2 2 4 3 6 3 4 3 3 10 2 2 5 9 31 33 30 26 23 19 17 16 18 18 17 16 15 14 15 15 13 12 11 11 11 11 12 12 12 11 11 10 11 11 11 12 13 12
3 3 7 5 4 6 3 5 7 4 6 1 4 11 30 30 28 24 21 19 20 17 16 19 18 17 17 15 15 16 16 16 15 13 12 12 12 14 13 12 14 14 14 14 15 15 14 15 16
1 4 3 6 8 8 3 3 3 9 3 7 12 19 20 24 20 19 18 26 26 20 18 20 20 19 17 17 16 16 16 16 16 14 13 12 13 13 13 14 15 15 15 17 17 17 18 17 17
4 6 4 5 5 4 4 7 4 4 5 8 19 23 22 19 14 19 20 25 26 23 20 22 22 21 18 18 16 16 15 15 17 16 13 12 13 14 15 16 16 17 18 18 19 19 18 17 16
5 4 7 6 10 5 2 5 5 5 2 15 17 19 19 15 16 19 26 29 28 26 23 23 23 21 19 19 17 16 16 16 17 16 14 13 14 15 15 16 16 18 18 20 20 20 20 20 19
3 6 9 6 8 4 5 2 3 1 10 15 18 17 15 16 18 19 24 29 30 28 24 23 23 22 20 19 18 16 15 16 16 16 15 13 13 14 15 15 17 18 19 19 20 21 20 20 20
5 7 7 5 4 4 7 1 6 6 10 16 16 15 12 13 19 23 25 30 34 30 27 24 23 22 21 20 18 17 16 15 17 16 14 14 13 14 15 17 18 18 19 21 23 24 23 24 24
5 3 4 3 2 4 8 5 5 11 15 16 16 12 14 17 21 22 27 30 33 31 28 25 24 23 21 20 19 17 16 15 17 16 15 14 14 14 16 17 18 18 20 22 25 26 25 26 27
3 4 6 8 6 4 5 5 7 10 15 17 16 16 15 13 15 22 28 33 32 31 29 26 24 24 22 21 20 18 16 16 16 15 15 14 14 14 16 17 17 18 20 23 23 23 23 27 28
5 4 4 6 4 2 7 8 5 14 13 17 17 14 15 17 19 23 29 34 34 32 30 29 27 26 25 24 22 19 17 16 14 14 13 12 13 13 15 16 17 19 21 23 23 21 22 25 27
3 4 8 11 11 3 12 9 9 14 13 10 10 13 16 18 11 22 31 36 36 33 32 30 30 29 29 29 27 22 21 17 15 14 12 11 11 12 15 16 17 18 21 22 24 22 24 26 31
7 8 13 10 15 7 10 10 11 11 18 22 21 20 18 15 13 18 25 31 36 36 33 32 31 31 31 30 28 22 23 16 16 14 12 10 10 11 14 15 16 17 18 21 25 25 23 21 29
11 9 10 11 14 5 6 7 7 5 5 18 15 18 13 14 15 16 22 27 30 37 35 33 31 30 31 30 24 26 18 20 20 16 15 12 9 11 13 14 15 14 16 20 22 22 22 20 21
12 5 9 7 6 9 5 13 10 5 8 12 18 16 16 19 19 18 21 28 31 36 37 35 33 32 31 28 29 30 26 23 19 17 16 13 9 11 12 13 13 12 13 16 18 17 16 17 19
6 4 7 10 8 6 7 5 6 5 6 13 18 18 19 20 21 22 23 31 29 35 38 34 33 29 28 27 29 28 23 19 21 20 18 14 11 10 10 11 11 11 11 13 13 13 14 15 15
2 5 11 4 2 12 7 7 10 10 12 6 15 19 21 22 22 18 25 27 28 35 39 37 34 31 28 27 29 25 25 24 24 22 19 16 12 10 9 10 11 10 10 11 11 10 12 14 14
7 1 4 4 2 11 8 9 15 8 8 14 14 18 20 20 20 21 22 23 27 31 35 38 36 32 29 28 28 26 24 24 22 21 20 18 15 11 10 9 9 9 9 9 8 10 12 15 17
4 13 7 9 6 7 5 9 6 8 10 6 5 9 14 18 22 23 23 28 31 34 36 34 35 34 31 29 27 24 23 22 20 19 19 15 14 11 9 8 9 9 10 9 8 9 12 16 19
4 4 13 15 16 9 10 20 16 5 7 7 9 5 13 20 22 24 22 30 33 35 36 36 37 36 33 31 28 26 24 23 21 19 17 16 14 13 10 8 8 9 10 8 7 8 11 15 18
4 4 2 3 4 10 6 7 10 9 9 9 9 9 7 10 13 16 18 26 32 34 34 36 38 39 36 32 29 28 25 21 20 20 18 16 15 12 9 9 7 9 9 8 6 7 11 15 18
6 2 4 3 3 3 6 6 3 7 8 12 13 7 5 8 12 13 15 23 29 32 34 33 35 36 36 33 31 28 25 23 22 20 16 15 15 12 10 8 7 7 8 6 6 6 10 15 17
2 4 3 3 4 4 5 16 3 7 8 10 10 8 1 6 8 11 13 21 25 29 31 33 33 36 39 36 33 30 27 25 23 20 17 15 14 11 11 9 9 6 5 5 5 6 10 15 16
Wind_Direction
337 338 96 52 54 63 262 268 256 132 74 5 95 119 133 9 116 188 131 144 142 141 143 141 139 137 133 128 122 119 114 110 103 97 87 78 72 68 62 62 61 63 49 44 33 22 21 17 13
332 342 60 77 87 54 268 264 225 164 138 109 83 109 66 88 32 116 119 148 140 132 133 134 138 138 135 127 122 119 117 112 105 95 87 84 73 62 60 55 50 48 43 35 27 19 9 5 3
342 94 89 96 115 189 216 244 180 122 143 104 108 47 108 137 59 108 143 147 139 127 130 135 134 128 125 122 124 124 120 122 111 108 103 94 91 78 57 49 44 37 30 21 14 8 2 353 350
44 23 36 91 215 258 258 258 138 139 62 44 108 99 56 18 75 142 145 144 135 134 139 139 132 127 128 123 121 124 118 113 103 94 85 78 77 73 70 61 49 45 38 29 16 5 355 347 340
55 64 50 56 254 249 247 208 172 156 133 132 136 157 104 123 133 148 141 146 151 143 142 137 133 129 126 120 121 123 121 117 106 103 98 94 86 84 82 76 72 67 63 55 43 42 26 11 357
40 98 70 257 254 276 272 172 168 149 137 133 101 131 127 149 141 141 145 144 144 142 140 135 136 134 133 131 126 119 112 110 117 106 100 96 93 87 82 81 74 68 62 55 49 39 30 34 40
127 96 210 232 265 298 234 129 180 172 149 189 145 106 122 139 141 150 144 138 134 130 130 130 130 129 126 120 122 122 116 115 121 113 105 99 95 91 86 81 76 69 57 51 44 37 37 39 37
115 104 195 238 243 266 223 155 131 150 169 113 156 167 175 169 152 154 149 149 147 144 135 131 130 131 130 120 120 129 125 123 120 113 108 106 100 90 83 78 66 58 44 36 31 27 25 24 22
114 65 206 247 213 260 316 154 48 122 125 33 292 160 156 149 149 144 144 148 155 155 155 146 141 142 137 126 120 128 125 124 119 112 109 107 97 85 76 67 56 52 41 35 32 28 23 22 19
130 159 211 219 263 286 305 158 151 127 133 72 67 99 132 146 149 148 152 151 161 158 155 159 154 150 147 133 127 118 118 118 110 104 101 98 89 82 72 66 56 52 46 40 35 28 20 16 17
263 219 218 272 254 254 225 134 144 126 226 204 174 148 149 151 158 155 158 165 170 165 158 158 156 155 154 141 134 124 116 111 103 96 94 93 86 78 66 58 51 46 39 33 27 25 24 21 18
314 255 249 282 320 317 221 146 192 202 213 176 162 157 151 160 168 167 159 163 163 166 160 156 158 159 157 149 142 129 120 110 100 95 94 89 81 69 61 55 48 42 35 30 26 23 18 16 16
208 270 307 289 294 292 133 215 192 239 29 125 141 155 159 160 162 164 166 166 165 166 164 161 159 162 157 152 143 131 117 106 97 93 89 80 74 68 60 54 46 40 31 26 21 16 11 6 7
281 295 288 289 279 262 182 266 15 153 131 135 152 162 166 167 167 156 166 167 169 168 165 162 162 162 160 152 144 131 119 109 100 91 85 79 71 66 59 54 48 41 32 27 22 19 13 9 5
272 297 301 234 238 231 139 5 237 144 151 152 166 168 169 170 170 178 176 170 170 171 167 166 163 162 163 156 146 134 124 113 100 91 83 76 68 65 61 55 50 41 34 29 24 20 15 9 4
334 283 295 256 139 253 140 242 227 167 163 173 176 176 175 181 184 179 178 175 174 167 166 164 164 161 160 157 147 136 126 114 101 92 86 79 72 64 60 55 49 37 31 26 23 18 14 10 5
269 252 252 298 215 231 176 219 251 184 185 181 184 184 183 177 183 180 180 178 173 169 165 164 164 162 158 157 149 140 129 117 104 94 88 82 75 67 60 56 47 32 27 26 25 27 23 13 3
223 233 244 250 318 31 302 261 226 197 192 198 197 186 182 184 192 178 178 179 174 172 170 168 166 164 161 159 151 142 133 120 111 100 93 86 80 68 58 53 44 33 30 32 32 31 32 22 4
296 279 276 272 274 291 273 259 264 202 211 208 194 195 192 196 178 172 177 178 175 174 171 169 167 167 165 161 154 147 142 132 122 111 103 93 82 66 55 55 45 37 37 36 30 31 30 27 21
248 263 278 283 277 191 264 259 256 188 209 207 200 199 197 182 175 176 174 173 172 173 175 173 173 171 173 170 162 161 147 134 128 125 116 107 89 73 63 53 46 41 39 38 34 35 35 34 31
251 241 260 257 283 238 261 272 249 240 244 219 212 209 194 190 181 182 180 178 175 175 177 175 175 175 173 172 168 155 150 138 133 131 127 118 97 76 59 49 46 48 42 42 36 39 42 36 37
266 213 244 254 290 282 153 287 256 240 224 197 215 204 197 191 193 182 181 181 180 178 180 178 176 174 177 180 173 167 158 149 149 143 135 128 106 81 63 55 53 53 50 45 41 44 46 42 37
250 300 272 277 264 298 258 267 262 194 245 217 215 206 199 197 191 191 189 181 177 178 177 175 174 174 177 177 178 170 162 156 147 144 143 136 117 90 73 61 57 63 59 54 52 53 55 49 43
264 324 304 252 181 261 245 207 239 227 224 238 220 210 202 196 193 188 185 176 177 176 175 172 171 173 175 176 176 175 165 155 149 151 146 141 126 107 88 68 69 74 63 61 60 54 45 41 38
248 87 297 290 191 256 187 234 259 233 236 221 227 214 207 195 185 182 181 180 173 169 167 170 172 167 170 169 171 172 168 164 161 161 157 148 137 126 107 80 79 70 57 61 74 60 53 38 27
245 219 213 243 232 271 245 242 248 211 230 252 241 235 205 191 195 189 184 178 171 169 168 165 165 165 170 170 167 167 167 165 165 164 159 153 145 136 120 91 74 55 54 69 77 73 49 26 14
289 201 229 250 259 276 255 270 280 283 275 286 299 251 198 198 194 190 182 179 169 170 169 165 166 168 172 169 165 164 164 166 163 158 157 150 151 142 130 102 77 74 68 85 88 78 41 20 14
202 227 270 235 246 244 238 263 261 317 304 292 275 281 222 190 183 179 177 176 171 170 166 167 169 169 171 170 168 165 165 166 163 159 156 152 157 150 138 117 85 80 82 84 99 70 31 17 15
335 314 348 352 210 240 286 253 298 311 324 311 304 295 223 179 173 169 173 173 168 165 166 166 167 165 169 172 170 166 165 166 163 160 160 158 159 154 149 130 114 96 84 86 95 59 23 20 14
111 43 37 151 297 305 289 262 113 55 10 14 2 357 104 163 163 165 164 165 166 165 168 167 165 166 172 174 172 169 166 166 165 163 161 163 158 159 157 148 139 107 94 107 92 51 25 19 11